Regional Weather Roundup
Issued by NWS Newport/Morehead, NC

Home | Current Version | Previous Version | Text Only | Print | Product List | Glossary On
Versions: 1 2 3 4 5 6 7 8 9 10 11 12 13 14 15 16 17 18 19 20 21 22 23 24 25 26 27 28 29 30 31 32 33 34 35 36 37 38 39 40 41 42 43 44 45 46 47 48 49 50
000
ASUS42 KMHX 290528
RWRMHX
WEATHER ROUNDUP FOR EASTERN NORTH CAROLINA
NATIONAL WEATHER SERVICE NEWPORT/MOREHEAD CITY NC
100 AM EDT SUN MAR 29 2015

NOTE: "FAIR" INDICATES FEW OR NO CLOUDS BELOW 12,000 FEET
WITH NO SIGNIFICANT WEATHER AND/OR OBSTRUCTIONS TO VISIBILITY

NCZ015>017-031-032-045>047-102-103-290600-
NORTH COAST

CITY           SKY/WX    TMP DP  RH WIND       PRES   REMARKS
EDENTON        CLEAR     31  17  55 CALM      30.28R
ELIZABETH CITY CLEAR     32  14  47 N12       30.27R
KITTY HAWK     CLEAR     33  10  38 N10G18    30.24R
MANTEO         CLEAR     33  14  45 N17G23    30.26R

$$

NCZ045>047-081-094-103-104-290600-
CENTRAL COAST

CITY           SKY/WX    TMP DP  RH WIND       PRES   REMARKS
FRISCO         CLEAR     37  24  59 N8G20     30.24R
SWANQUARTER      N/A     34 N/A N/A N7G13     30.24R

$$

NCZ095-097-098-100-101-290600-
SOUTHERN COAST

CITY           SKY/WX    TMP DP  RH WIND       PRES   REMARKS
BEAUFORT       CLEAR     36  24  62 N7        30.25R
CEDAR ISLAND     N/A     39 N/A N/A NW14G30   30.30R
JACKSONVILLE   CLEAR     36  19  50 N7        30.26R
PINEY ISLAND   CLEAR    N/A N/A N/A N22G29    30.24R
WILMINGTON     CLEAR     37  20  50 N10       30.26R


$$

NCZ011>013-027>030-043-044-078>080-089-090>093-098-290600-
COASTAL PLAIN

CITY           SKY/WX    TMP DP  RH WIND       PRES   REMARKS
AHOSKIE        CLEAR     28  15  57 CALM      30.30R
CLINTON        CLEAR     37  15  40 N6        30.29R
ELIZABETHTOWN  CLEAR     36  18  48 CALM      30.28R
GOLDSBORO      CLEAR     35  17  46 N8        30.27R
GREENVILLE     CLEAR     32  19  59 N6        30.30R
HAVELOCK       CLEAR     39  16  39 N23G29    30.27R
KENANSVILLE    CLEAR     35  16  46 N6        30.29R
KINSTON        CLEAR     34  19  55 N7        30.29R
NEW BERN       CLEAR     36  18  48 N13G23    30.28R
RICHLANDS      CLEAR     32  18  55 NW5       30.27S
ROCKY MOUNT    CLEAR     30  17  58 N6        30.29R
WASHINGTON     CLEAR     32  17  55 N7        30.29R
WHITEVILLE     CLEAR     38  19  45 N8        30.27R

$$

AMZ130-135-150-152-154-156-158-170-250-252-270-ANZ085-086-088-633-658-670-290600-
MARINE OBSERVATIONS

STATION/POSITION TIME  TEMP    WIND        PRES    WAVE   SWELL
                       AIR SEA DIR/SP/G            HT/PER HT/PER
                 (UTC) (F)     (DEG/KT/KT) (MB)    (FT/S) (FT/S)
CHESAPEAKE LIGHT 0500   34     320/ 24/ 26 1024.5
64 E VA BEACH    0450   37 56  330/ 23/ 29 1022.3    6/ 6
DUCK             0500   35 42  340/ 23/ 25 1023.0
2 E DUCK         0411      41                N/A     5/ 5
10 NE DUCK       NOT AVBL
OREGON INLET     0500   33 46  330/ 12/ 17 1024.5
HATTERAS CG      0406   42 53  340/ 16/ 18 1023.5
CAPE LOOKOUT     0500   41     350/ 13/ 16 1023.7
BEAUFORT LAB     0412   42 55   10/ 11/ 13 1023.0
27 SE WRIGHTSVLE 0500   45 65   20/ 23/ 27 1024.3
5 SE WRIGHTSVLE  0500   44 56   30/ 23/ 27 1024.1
225 S CAPE HAT   0450   58 68  320/ 16/ 21 1020.4   10/ 8   8/ 8
41 SE CHARLESTON 0450   55 68  360/ 14/ 17 1022.5    4/ 5   2/ 9

$$



USA.gov is the U.S. government's official web portal to all federal, state and local government web resources and services.